Regional Weather Roundup
Issued by NWS

Home | Current Version | Previous Version | Text Only | Print | Product List | Glossary On
Versions: 1 2 3 4 5 6 7 8 9 10 11 12 13 14 15 16 17 18 19 20 21 22 23 24 25 26 27 28 29 30 31 32 33 34 35 36 37 38 39 40 41 42 43 44 45 46 47 48 49 50
000
ASCA44 KEWX 041120
RWRMX

LATIN AMERICA AND CARIBBEAN REGIONAL WEATHER ROUNDUP
NATIONAL WEATHER SERVICE AUSTIN/SAN ANTONIO TX
600 AM CDT WED MAY 04 2016

NOTE: "FAIR" INDICATED FEW OR NO CLOUDS BELOW 12,000 FEET WITH NO
SIGNIFICANT WEATHER AND/OR OBSTRUCTIONS TO VISIBILITY.

BAJA CALIFORNIA

CITY           SKY/WX    TMP DP  RH WIND       PRES   REMARKS
S.J. DEL CABO    N/A    N/A N/A N/A MISG        N/A
TIJUANA        CLOUDY    59  54  82 NW6       29.97S FOG

NORTHWESTERN MEXICO

CITY           SKY/WX    TMP DP  RH WIND       PRES   REMARKS
HERMOSILLO     CLEAR     66  41  39 CALM      29.87
OBREGON        PTCLDY    59  41  51 E3        29.82

NORTHEASTERN MEXICO

CITY           SKY/WX    TMP DP  RH WIND       PRES   REMARKS
CHIHUAHUA      CLEAR     61  34  36 E10       30.19
MONCLOVA         N/A    N/A N/A N/A MISG        N/A
MONTERREY      CLOUDY    66  57  72 W5        30.09R
REYNOSA        MOCLDY    66  55  68 N5        30.05
SALTILLO       DRZL/FOG  54  48  82 N6        30.27  VSB 3/4
CD. VICTORIA     N/A    N/A N/A N/A MISG        N/A

WESTERN MEXICO

CITY           SKY/WX    TMP DP  RH WIND       PRES   REMARKS
AGUASCALIENTES CLEAR     59  32  36 SE7       30.20
COLIMA         CLEAR     75  55  50 CALM      30.00
DEL BAJIO      PTCLDY    59  41  51 N6        30.25R
GUADALAJARA    CLEAR     59  36  41 CALM      30.14
MAZATLAN       PTCLDY    64  61  88 NE5       29.91R
P. VALLARTA    PTCLDY    72  68  88 CALM      29.88F
URUAPAN          N/A    N/A N/A N/A MISG        N/A
ZACATECAS      CLEAR     48  27  43 CALM      30.25R

CENTRAL MEXICO

CITY           SKY/WX    TMP DP  RH WIND       PRES   REMARKS
CUERNAVACA       N/A    N/A N/A N/A MISG        N/A
MEXICO CITY    PTCLDY    63  46  55 NE5       30.30R
MORELIA        CLEAR     61  46  59 CALM      30.21
POZA RICA        N/A    N/A N/A N/A MISG        N/A
S. LUIS POTOSI MOCLDY    57  55  94 NE6       30.21R
TOLUCA         CLEAR     50  46  87 CALM      30.39R FOG

SOUTHERN MEXICO

CITY           SKY/WX    TMP DP  RH WIND       PRES   REMARKS
ACAPULCO       CLEAR     77  75  94 W2        29.85S
B. DE HUATULCO   N/A    N/A N/A N/A MISG        N/A
OAXACA         MOCLDY    66  59  77 CALM      30.18
P. ESCONDIDO   PTCLDY    79  73  83 N3        29.94
VERACRUZ       CLOUDY    77  73  88 NE12      29.90

YUCATAN PENINSULA

CITY           SKY/WX    TMP DP  RH WIND       PRES   REMARKS
CAMPECHE       CLEAR     79  75  89 E6        29.82R
CANCUN         MOCLDY    81  79  94 SE7       29.87R
CHETUMAL       MOCLDY    81  79  94 SE6       29.88
CD. DEL CARMEN CLOUDY    84  75  74 CALM      29.85  HX  92
COZUMEL        PTCLDY    73  73 100 CALM      29.88R
MERIDA         PTCLDY    79  75  89 CALM      29.84S
MINATITLAN     CLOUDY    79  70  73 CALM      29.87
TAPACHULA      PTCLDY    82  77  83 CALM      29.80S HX  91
TUX. GUTIERREZ MOCLDY    77  68  73 NW9       29.92
VILLAHERMOSA   CLOUDY    79  77  94 CALM      29.90R FOG

CENTRAL AMERICA

CITY           SKY/WX    TMP DP  RH WIND       PRES   REMARKS
BELIZE CITY    PTCLDY    79  77  94 CALM      29.89
MANAGUA        MOSUNNY   79  73  83 E5        29.83R

CARIBBEAN

CITY           SKY/WX    TMP DP  RH WIND       PRES   REMARKS
ARUBA          PTCLDY    82  75  78 E15       29.89R
CURACAO        PTCLDY    82  75  78 E13       29.92S
KINGSTON       PTCLDY    82  73  74 N5        29.92S
NASSAU         PTCLDY    79  75  89 S7        29.90S
SAN JUAN       MOSUNNY   77  73  88 SE3       30.00R
SANTO DOMINGO  MOSUNNY   73  72  94 NE5       29.97R
ST. CROIX      MOSUNNY   79  73  83 E10       30.00R
ST. KITTS      MOSUNNY   81  73  78 E13       30.00R
ST. MAARTEN    MOSUNNY   81  73  78 E8        30.00R
ST. THOMAS     SUNNY     81  73  78 E8        30.00R

$$





USA.gov is the U.S. government's official web portal to all federal, state and local government web resources and services.